KUIPER-00088

导读

KUIPER-00088是美国亚马逊“柯伊伯计划”(Project Kuiper)低轨卫星互联网星座中的一颗卫星,于2025年8月11日发射。该计划旨在通过数千颗低轨卫星为全球提供高速低延迟互联网接入,尤其服务偏远地区。作为大规模星座部署的一环,KUIPER-00088将助力项目在2025年底开始商用服务,推动2026年前完成一半卫星发射目标,支撑全球网络覆盖与云通信一体化服务落地。

基本信息
目录编号:
65133
目录名称:
KUIPER-00088
国际标识:
2025-171B
轨道中心:
EARTH
卫星名称:
KUIPER-00088
卫星全名:
KUIPER-00088
卫星状态:
在轨 (已飞行350 天)
发射日期:
2025-08-11 UTC
国别 :
美国 (US)
星等 :
--
轨道信息
数据来源 国际轨道数据 AOE轨道数据
星历时间 2026-07-27T21:22:35+0800
8小时前
查看轨道信息
2026-07-23T06:00:00+0800
5天前
查看轨道信息
半长轴 7007.662km 7007.624km
偏心率 0.0000341 0.0000657
轨道倾角 51.898° 51.900°
近地点辐角 80.556° 142.407°
升交点赤经 267.081° 287.604°
平近点角 279.545° 318.267°
近地点 629.286km 629.026km
远地点 629.764km 629.948km
周期 97.301分钟 97.301分钟
每日圈数 14.799364 14.799487
详细信息
使用方式:
暂无
2D轨道图
3D轨道图
轨道高度分析图
轨道倾角分析图
轨道综合分析图
查看轨道综合分析图